This is the latest recevied weather packets stored in our database for station/object KB1JL-13. If no packets are shown the sender has not sent any weather packets the latest 10 day(s).
| Time | Temp. | Humidity | Pressure | Rain* | Wind** | Luminosity | Snow |
|---|---|---|---|---|---|---|---|
| 1787877325 | 20.56° C | 98% | 1028.1 hPa | 0 mm | - | 0 W/m² | - |
| 1787877020 | 20.56° C | 97% | 1028.1 hPa | 0 mm | - | 0 W/m² | - |
| 1787876715 | 20.56° C | 97% | 1028.1 hPa | 0 mm | - | 0 W/m² | - |
| 1787876410 | 21.11° C | 97% | 1027.8 hPa | 0 mm | - | 0 W/m² | - |
| 1787876110 | 21.11° C | 96% | 1028.1 hPa | 0 mm | - | 0 W/m² | - |
| 1787875804 | 21.11° C | 96% | 1027.8 hPa | 0 mm | - | 0 W/m² | - |
| 1787875503 | 21.11° C | 96% | 1027.8 hPa | 0 mm | - | 0 W/m² | - |
| 1787875196 | 21.11° C | 95% | 1027.4 hPa | 0 mm | - | 0 W/m² | - |
| 1787874895 | 21.67° C | 95% | 1027.1 hPa | 0 mm | - | 0 W/m² | - |
| 1787874591 | 21.67° C | 94% | 1027.1 hPa | 0 mm | - | 0 W/m² | - |
| 1787874284 | 21.67° C | 94% | 1027.1 hPa | 0 mm | - | 0 W/m² | - |
| 1787873979 | 21.67° C | 93% | 1027.1 hPa | 0 mm | - | 0 W/m² | - |
| 1787873678 | 21.67° C | 93% | 1027.1 hPa | 0 mm | - | 0 W/m² | - |
| 1787873373 | 22.22° C | 93% | 1027.1 hPa | 0 mm | - | 0 W/m² | - |
| 1787873079 | 22.22° C | 92% | 1027.1 hPa | 0 mm | - | 4 W/m² | - |
| 1787872767 | 22.22° C | 92% | 1027.1 hPa | 0 mm | - | 6 W/m² | - |
| 1787872464 | 22.78° C | 91% | 1027.4 hPa | 0 mm | - | 11 W/m² | - |
| 1787872158 | 22.78° C | 91% | 1027.4 hPa | 0 mm | - | 16 W/m² | - |
| 1787871857 | 22.78° C | 91% | 1027.1 hPa | 0 mm | - | 21 W/m² | - |
| 1787871547 | 22.78° C | 90% | 1027.4 hPa | 0 mm | - | 26 W/m² | - |
| 1787871243 | 22.78° C | 90% | 1027.4 hPa | 0 mm | - | 29 W/m² | - |
| 1787870937 | 22.78° C | 90% | 1027.1 hPa | 0 mm | - | 30 W/m² | - |
| 1787870637 | 22.78° C | 89% | 1027.1 hPa | 0 mm | - | 33 W/m² | - |
| 1787870332 | 22.78° C | 89% | 1027.4 hPa | 0 mm | - | 49 W/m² | - |
| 1787870027 | 22.78° C | 88% | 1027.4 hPa | 0 mm | - | 49 W/m² | - |
* Rain latest hour (hover to see other rain measurements)
** Current wind speed in m/s (hover to see current wind gust speed)